This is the latest recevied weather packets stored in our database for station/object KC0CAU. If no packets are shown the sender has not sent any weather packets the latest 10 day(s).
| Time | Temp. | Humidity | Pressure | Rain* | Wind** | Luminosity | Snow |
|---|---|---|---|---|---|---|---|
| 1777526117 | 1.67° C | 64% | 1024.6 hPa | 0 mm | - | - | - |
| 1777525215 | 1.11° C | 64% | 1024.7 hPa | 0 mm | - | - | - |
| 1777524314 | 1.67° C | 62% | 1024.6 hPa | 0 mm | - | - | - |
| 1777523414 | 2.22° C | 60% | 1024.5 hPa | 0 mm | - | - | - |
| 1777522513 | 2.78° C | 59% | 1024.5 hPa | 0 mm | - | - | - |
| 1777521612 | 2.78° C | 59% | 1024.6 hPa | 0 mm | - | - | - |
| 1777520712 | 2.78° C | 58% | 1024.6 hPa | 0 mm | - | - | - |
| 1777519812 | 3.33° C | 57% | 1024.5 hPa | 0 mm | - | - | - |
| 1777518912 | 3.89° C | 55% | 1024.5 hPa | 0 mm | - | - | - |
| 1777518009 | 4.44° C | 55% | 1024.4 hPa | 0 mm | - | - | - |
| 1777517112 | 4.44° C | 54% | 1024.2 hPa | 0 mm | - | - | - |
| 1777516215 | 5° C | 51% | 1024 hPa | 0 mm | - | - | - |
| 1777515304 | 5.56° C | 50% | 1023.7 hPa | 0 mm | - | - | - |
| 1777514403 | 6.11° C | 49% | 1023.5 hPa | 0 mm | - | - | - |
| 1777513560 | 6.67° C | 46% | 1023.3 hPa | 0 mm | - | - | - |
| 1777512660 | 7.78° C | 45% | 1023.1 hPa | 0 mm | - | - | - |
| 1777511759 | 8.33° C | 44% | 1022.8 hPa | 0 mm | - | - | - |
| 1777510857 | 8.33° C | 44% | 1022.6 hPa | 0 mm | - | - | - |
| 1777509955 | 8.89° C | 43% | 1022.6 hPa | 0 mm | - | - | - |
| 1777509055 | 9.44° C | 42% | 1022.6 hPa | 0 mm | - | - | - |
| 1777508155 | 9.44° C | 42% | 1022.4 hPa | 0 mm | - | - | - |
| 1777507259 | 10° C | 40% | 1022.3 hPa | 0 mm | - | - | - |
| 1777506352 | 10° C | 42% | 1022.2 hPa | 0 mm | - | - | - |
| 1777505464 | 10.56° C | 41% | 1022 hPa | 0 mm | - | - | - |
| 1777504550 | 10.56° C | 41% | 1022 hPa | 0 mm | - | - | - |
* Rain latest hour (hover to see other rain measurements)
** Current wind speed in m/s (hover to see current wind gust speed)